Year,Month,Day,Hour,Minute,Value (Times are PST for barometer in hPa)
2009,05,05,00,00,987.51
2009,05,05,00,01,987.51
2009,05,05,00,02,987.47
2009,05,05,00,03,987.40
2009,05,05,00,04,987.44
2009,05,05,00,05,987.40
2009,05,05,00,06,987.40
2009,05,05,00,07,987.37
2009,05,05,00,08,987.44
2009,05,05,00,09,987.44
2009,05,05,00,10,987.44
2009,05,05,00,11,987.44
2009,05,05,00,12,987.47
2009,05,05,00,13,987.47
2009,05,05,00,14,987.44
2009,05,05,00,15,987.47
2009,05,05,00,16,987.40
2009,05,05,00,17,987.44
2009,05,05,00,18,987.44
2009,05,05,00,19,987.44
2009,05,05,00,20,987.51
2009,05,05,00,21,987.47
2009,05,05,00,22,987.51
2009,05,05,00,23,987.44
2009,05,05,00,24,987.47
2009,05,05,00,25,987.44
2009,05,05,00,26,987.47
2009,05,05,00,27,987.47
2009,05,05,00,28,987.51
2009,05,05,00,29,987.54
2009,05,05,00,30,987.54
2009,05,05,00,31,987.51
2009,05,05,00,32,987.54
2009,05,05,00,33,987.54
2009,05,05,00,34,987.57
2009,05,05,00,35,987.54
2009,05,05,00,36,987.57
2009,05,05,00,37,987.57
2009,05,05,00,38,987.61
2009,05,05,00,39,987.57
2009,05,05,00,40,987.57
2009,05,05,00,41,987.61
2009,05,05,00,42,987.57
2009,05,05,00,43,987.64
2009,05,05,00,44,987.64
2009,05,05,00,45,987.61
2009,05,05,00,46,987.64
2009,05,05,00,47,987.64
2009,05,05,00,48,987.61
2009,05,05,00,49,987.64
2009,05,05,00,50,987.67
2009,05,05,00,51,987.74
2009,05,05,00,52,987.74
2009,05,05,00,53,987.71
2009,05,05,00,54,987.67
2009,05,05,00,55,987.74
2009,05,05,00,56,987.67
2009,05,05,00,57,987.74
2009,05,05,00,58,987.74
2009,05,05,00,59,987.74
2009,05,05,01,00,987.74
2009,05,05,01,01,987.74
2009,05,05,01,02,987.78
2009,05,05,01,03,987.81
2009,05,05,01,04,987.78
2009,05,05,01,05,987.74
2009,05,05,01,06,987.74
2009,05,05,01,07,987.81
2009,05,05,01,08,987.78
2009,05,05,01,09,987.84
2009,05,05,01,10,987.84
2009,05,05,01,11,987.81
2009,05,05,01,12,987.81
2009,05,05,01,13,987.84
2009,05,05,01,14,987.88
2009,05,05,01,15,987.91
2009,05,05,01,16,987.84
2009,05,05,01,17,987.84
2009,05,05,01,18,987.84
2009,05,05,01,19,987.84
2009,05,05,01,20,987.84
2009,05,05,01,21,987.84
2009,05,05,01,22,987.88
2009,05,05,01,23,987.81
2009,05,05,01,24,987.74
2009,05,05,01,25,987.84
2009,05,05,01,26,987.81
2009,05,05,01,27,987.78
2009,05,05,01,28,987.78
2009,05,05,01,29,987.78
2009,05,05,01,30,987.78
2009,05,05,01,31,987.71
2009,05,05,01,32,987.72
2009,05,05,01,33,987.81
2009,05,05,01,34,987.81
2009,05,05,01,35,987.81
2009,05,05,01,36,987.81
2009,05,05,01,37,987.81
2009,05,05,01,38,987.81
2009,05,05,01,39,987.81
2009,05,05,01,40,987.81
2009,05,05,01,41,987.84
2009,05,05,01,42,987.84
2009,05,05,01,43,987.81
2009,05,05,01,44,987.84
2009,05,05,01,45,987.88
2009,05,05,01,46,987.88
2009,05,05,01,47,987.91
2009,05,05,01,48,987.91
2009,05,05,01,49,987.95
2009,05,05,01,50,987.98
2009,05,05,01,51,987.95
2009,05,05,01,52,987.98
2009,05,05,01,53,988.01
2009,05,05,01,54,988.01
2009,05,05,01,55,988.01
2009,05,05,01,56,988.01
2009,05,05,01,57,988.01
2009,05,05,01,58,988.05
2009,05,05,01,59,988.05
2009,05,05,02,00,988.05
2009,05,05,02,01,988.08
2009,05,05,02,02,988.11
2009,05,05,02,03,988.05
2009,05,05,02,04,988.05
2009,05,05,02,05,988.05
2009,05,05,02,06,988.05
2009,05,05,02,07,988.05
2009,05,05,02,08,988.11
2009,05,05,02,09,988.08
2009,05,05,02,10,988.15
2009,05,05,02,11,988.11
2009,05,05,02,12,988.15
2009,05,05,02,13,988.22
2009,05,05,02,14,988.23
2009,05,05,02,15,988.32
2009,05,05,02,16,988.32
2009,05,05,02,17,988.32
2009,05,05,02,18,988.39
2009,05,05,02,19,988.39
2009,05,05,02,20,988.32
2009,05,05,02,21,988.35
2009,05,05,02,22,988.35
2009,05,05,02,23,988.33
2009,05,05,02,24,988.42
2009,05,05,02,25,988.45
2009,05,05,02,26,988.49
2009,05,05,02,27,988.49
2009,05,05,02,28,988.42
2009,05,05,02,29,988.39
2009,05,05,02,30,988.42
2009,05,05,02,31,988.39
2009,05,05,02,32,988.39
2009,05,05,02,33,988.42
2009,05,05,02,34,988.42
2009,05,05,02,35,988.35
2009,05,05,02,36,988.35
2009,05,05,02,37,988.35
2009,05,05,02,38,988.34
2009,05,05,02,39,988.22
2009,05,05,02,40,988.22
2009,05,05,02,41,988.25
2009,05,05,02,42,988.27
2009,05,05,02,43,988.18
2009,05,05,02,44,988.18
2009,05,05,02,45,988.18
2009,05,05,02,46,988.22
2009,05,05,02,47,988.24
2009,05,05,02,48,988.08
2009,05,05,02,49,988.15
2009,05,05,02,50,988.11
2009,05,05,02,51,988.05
2009,05,05,02,52,988.05
2009,05,05,02,53,988.15
2009,05,05,02,54,988.18
2009,05,05,02,55,988.15
2009,05,05,02,56,988.08
2009,05,05,02,57,988.11
2009,05,05,02,58,988.11
2009,05,05,02,59,988.11
2009,05,05,03,00,988.15
2009,05,05,03,01,988.08
2009,05,05,03,02,988.05
2009,05,05,03,03,988.11
2009,05,05,03,04,988.08
2009,05,05,03,05,988.11
2009,05,05,03,06,988.11
2009,05,05,03,07,988.01
2009,05,05,03,08,988.01
2009,05,05,03,09,987.98
2009,05,05,03,10,988.01
2009,05,05,03,11,988.05
2009,05,05,03,12,988.11
2009,05,05,03,13,988.05
2009,05,05,03,14,988.11
2009,05,05,03,15,988.11
2009,05,05,03,16,988.18
2009,05,05,03,17,988.22
2009,05,05,03,18,988.18
2009,05,05,03,19,988.25
2009,05,05,03,20,988.25
2009,05,05,03,21,988.24
2009,05,05,03,22,988.11
2009,05,05,03,23,988.08
2009,05,05,03,24,988.15
2009,05,05,03,25,988.22
2009,05,05,03,26,988.22
2009,05,05,03,27,988.28
2009,05,05,03,28,988.32
2009,05,05,03,29,988.35
2009,05,05,03,30,988.32
2009,05,05,03,31,988.35
2009,05,05,03,32,988.39
2009,05,05,03,33,988.39
2009,05,05,03,34,988.45
2009,05,05,03,35,988.45
2009,05,05,03,36,988.45
2009,05,05,03,37,988.52
2009,05,05,03,38,988.55
2009,05,05,03,39,988.55
2009,05,05,03,40,988.59
2009,05,05,03,41,988.55
2009,05,05,03,42,988.52
2009,05,05,03,43,988.52
2009,05,05,03,44,988.59
2009,05,05,03,45,988.66
2009,05,05,03,46,988.62
2009,05,05,03,47,988.66
2009,05,05,03,48,988.69
2009,05,05,03,49,988.69
2009,05,05,03,50,988.72
2009,05,05,03,51,988.76
2009,05,05,03,52,988.76
2009,05,05,03,53,988.69
2009,05,05,03,54,988.76
2009,05,05,03,55,988.76
2009,05,05,03,56,988.79
2009,05,05,03,57,988.79
2009,05,05,03,58,988.86
2009,05,05,03,59,988.96
2009,05,05,04,00,988.93
2009,05,05,04,01,988.93
2009,05,05,04,02,988.96
2009,05,05,04,03,989.00
2009,05,05,04,05,989.10
2009,05,05,04,06,989.16
2009,05,05,04,07,989.20
2009,05,05,04,08,989.20
2009,05,05,04,09,989.23
2009,05,05,04,10,989.20
2009,05,05,04,11,989.14
2009,05,05,04,12,989.30
2009,05,05,04,13,989.27
2009,05,05,04,14,989.23
2009,05,05,04,15,989.23
2009,05,05,04,16,989.27
2009,05,05,04,17,989.23
2009,05,05,04,18,989.30
2009,05,05,04,19,989.27
2009,05,05,04,20,989.27
2009,05,05,04,21,989.30
2009,05,05,04,22,989.27
2009,05,05,04,23,989.33
2009,05,05,04,24,989.30
2009,05,05,04,25,989.37
2009,05,05,04,26,989.44
2009,05,05,04,27,989.44
2009,05,05,04,28,989.44
2009,05,05,04,29,989.44
2009,05,05,04,30,989.47
2009,05,05,04,31,989.48
2009,05,05,04,32,989.64
2009,05,05,04,33,989.65
2009,05,05,04,34,989.74
2009,05,05,04,35,989.77
2009,05,05,04,36,989.81
2009,05,05,04,37,989.84
2009,05,05,04,38,989.88
2009,05,05,04,39,989.91
2009,05,05,04,40,989.98
2009,05,05,04,41,989.98
2009,05,05,04,42,989.91
2009,05,05,04,43,989.91
2009,05,05,04,44,989.94
2009,05,05,04,45,990.01
2009,05,05,04,46,990.08
2009,05,05,04,47,990.11
2009,05,05,04,48,990.15
2009,05,05,04,49,990.11
2009,05,05,04,50,990.08
2009,05,05,04,51,990.15
2009,05,05,04,52,990.18
2009,05,05,04,53,990.21
2009,05,05,04,54,990.28
2009,05,05,04,55,990.25
2009,05,05,04,56,990.21
2009,05,05,04,57,990.21
2009,05,05,04,58,990.28
2009,05,05,04,59,990.25
2009,05,05,05,00,990.21
2009,05,05,05,01,990.32
2009,05,05,05,02,990.38
2009,05,05,05,03,990.42
2009,05,05,05,04,990.49
2009,05,05,05,05,990.49
2009,05,05,05,06,990.46
2009,05,05,05,07,990.59
2009,05,05,05,08,990.62
2009,05,05,05,09,990.63
2009,05,05,05,10,990.72
2009,05,05,05,11,990.70
2009,05,05,05,12,990.79
2009,05,05,05,13,990.79
2009,05,05,05,14,990.86
2009,05,05,05,15,990.89
2009,05,05,05,16,990.89
2009,05,05,05,17,990.93
2009,05,05,05,18,990.96
2009,05,05,05,19,990.96
2009,05,05,05,20,991.03
2009,05,05,05,21,991.05
2009,05,05,05,22,990.97
2009,05,05,05,23,991.06
2009,05,05,05,24,991.09
2009,05,05,05,25,991.09
2009,05,05,05,26,991.13
2009,05,05,05,27,991.09
2009,05,05,05,28,991.13
2009,05,05,05,29,991.13
2009,05,05,05,30,991.16
2009,05,05,05,31,991.16
2009,05,05,05,32,991.09
2009,05,05,05,33,991.16
2009,05,05,05,34,991.20
2009,05,05,05,35,991.20
2009,05,05,05,36,991.23
2009,05,05,05,37,991.20
2009,05,05,05,38,991.26
2009,05,05,05,39,991.23
2009,05,05,05,40,991.26
2009,05,05,05,41,991.26
2009,05,05,05,42,991.26
2009,05,05,05,43,991.30
2009,05,05,05,44,991.33
2009,05,05,05,45,991.40
2009,05,05,05,46,991.40
2009,05,05,05,47,991.43
2009,05,05,05,48,991.50
2009,05,05,05,49,991.50
2009,05,05,05,50,991.53
2009,05,05,05,51,991.60
2009,05,05,05,52,991.58
2009,05,05,05,53,991.67
2009,05,05,05,54,991.70
2009,05,05,05,55,991.70
2009,05,05,05,56,991.74
2009,05,05,05,57,991.81
2009,05,05,05,58,991.77
2009,05,05,05,59,991.87
2009,05,05,06,00,991.84
2009,05,05,06,01,991.87
2009,05,05,06,02,991.87
2009,05,05,06,03,991.94
2009,05,05,06,04,991.98
2009,05,05,06,05,991.99
2009,05,05,06,06,992.08
2009,05,05,06,07,992.01
2009,05,05,06,08,991.94
2009,05,05,06,09,992.04
2009,05,05,06,10,992.11
2009,05,05,06,11,992.11
2009,05,05,06,12,992.11
2009,05,05,06,13,992.14
2009,05,05,06,14,992.14
2009,05,05,06,15,992.18
2009,05,05,06,16,992.25
2009,05,05,06,17,992.25
2009,05,05,06,18,992.28
2009,05,05,06,19,992.35
2009,05,05,06,20,992.42
2009,05,05,06,21,992.38
2009,05,05,06,22,992.45
2009,05,05,06,23,992.45
2009,05,05,06,24,992.42
2009,05,05,06,25,992.46
2009,05,05,06,26,992.55
2009,05,05,06,27,992.52
2009,05,05,06,28,992.55
2009,05,05,06,29,992.58
2009,05,05,06,30,992.58
2009,05,05,06,31,992.58
2009,05,05,06,32,992.65
2009,05,05,06,33,992.65
2009,05,05,06,34,992.69
2009,05,05,06,35,992.75
2009,05,05,06,36,992.79
2009,05,05,06,37,992.79
2009,05,05,06,38,992.83
2009,05,05,06,39,992.92
2009,05,05,06,40,992.92
2009,05,05,06,41,992.99
2009,05,05,06,42,993.06
2009,05,05,06,43,993.06
2009,05,05,06,44,993.09
2009,05,05,06,45,993.09
2009,05,05,06,46,993.13
2009,05,05,06,47,993.19
2009,05,05,06,48,993.16
2009,05,05,06,49,993.19
2009,05,05,06,50,993.20
2009,05,05,06,51,993.30
2009,05,05,06,52,993.26
2009,05,05,06,53,993.33
2009,05,05,06,54,993.40
2009,05,05,06,55,993.43
2009,05,05,06,56,993.47
2009,05,05,06,57,993.53
2009,05,05,06,58,993.57
2009,05,05,06,59,993.57
2009,05,05,07,00,993.60
2009,05,05,07,01,993.63
2009,05,05,07,02,993.70
2009,05,05,07,03,993.74
2009,05,05,07,04,993.77
2009,05,05,07,05,993.77
2009,05,05,07,06,993.77
2009,05,05,07,07,993.77
2009,05,05,07,08,993.80
2009,05,05,07,09,993.84
2009,05,05,07,10,993.91
2009,05,05,07,11,993.91
2009,05,05,07,12,993.94
2009,05,05,07,13,993.97
2009,05,05,07,14,993.97
2009,05,05,07,15,994.04
2009,05,05,07,16,994.04
2009,05,05,07,17,994.07
2009,05,05,07,18,994.14
2009,05,05,07,19,994.18
2009,05,05,07,20,994.21
2009,05,05,07,21,994.21
2009,05,05,07,22,994.28
2009,05,05,07,23,994.31
2009,05,05,07,24,994.41
2009,05,05,07,25,994.45
2009,05,05,07,26,994.52
2009,05,05,07,27,994.45
2009,05,05,07,28,994.48
2009,05,05,07,29,994.48
2009,05,05,07,30,994.55
2009,05,05,07,31,994.62
2009,05,05,07,32,994.59
2009,05,05,07,33,994.72
2009,05,05,07,34,994.79
2009,05,05,07,35,994.85
2009,05,05,07,36,994.90
2009,05,05,07,37,994.99
2009,05,05,07,38,994.99
2009,05,05,07,39,994.99
2009,05,05,07,40,995.06
2009,05,05,07,41,995.02
2009,05,05,07,42,995.06
2009,05,05,07,43,995.12
2009,05,05,07,44,995.12
2009,05,05,07,45,995.16
2009,05,05,07,46,995.23
2009,05,05,07,47,995.29
2009,05,05,07,48,995.29
2009,05,05,07,49,995.33
2009,05,05,07,50,995.36
2009,05,05,07,51,995.40
2009,05,05,07,52,995.43
2009,05,05,07,53,995.43
2009,05,05,07,54,995.43
2009,05,05,07,55,995.50
2009,05,05,07,56,995.50
2009,05,05,07,57,995.53
2009,05,05,07,58,995.53
2009,05,05,07,59,995.60
2009,05,05,08,00,995.63
2009,05,05,08,01,995.67
2009,05,05,08,02,995.70
2009,05,05,08,03,995.77
2009,05,05,08,04,995.77
2009,05,05,08,05,995.84
2009,05,05,08,06,995.87
2009,05,05,08,07,995.94
2009,05,05,08,08,995.94
2009,05,05,08,09,996.04
2009,05,05,08,10,996.04
2009,05,05,08,11,996.04
2009,05,05,08,12,996.04
2009,05,05,08,13,996.07
2009,05,05,08,14,996.11
2009,05,05,08,15,996.17
2009,05,05,08,16,996.24
2009,05,05,08,17,996.24
2009,05,05,08,18,996.28
2009,05,05,08,19,996.28
2009,05,05,08,20,996.28
2009,05,05,08,21,996.31
2009,05,05,08,22,996.28
2009,05,05,08,23,996.24
2009,05,05,08,24,996.28
2009,05,05,08,25,996.31
2009,05,05,08,26,996.38
2009,05,05,08,27,996.45
2009,05,05,08,28,996.48
2009,05,05,08,29,996.55
2009,05,05,08,30,996.58
2009,05,05,08,31,996.58
2009,05,05,08,32,996.61
2009,05,05,08,33,996.65
2009,05,05,08,34,996.72
2009,05,05,08,35,996.78
2009,05,05,08,36,996.75
2009,05,05,08,37,996.82
2009,05,05,08,38,996.82
2009,05,05,08,39,996.82
2009,05,05,08,40,996.92
2009,05,05,08,41,996.95
2009,05,05,08,42,996.92
2009,05,05,08,43,997.02
2009,05,05,08,44,997.02
2009,05,05,08,45,997.09
2009,05,05,08,46,997.12
2009,05,05,08,47,997.12
2009,05,05,08,48,997.16
2009,05,05,08,49,997.16
2009,05,05,08,50,997.19
2009,05,05,08,51,997.29
2009,05,05,08,52,997.36
2009,05,05,08,53,997.36
2009,05,05,08,54,997.43
2009,05,05,08,55,997.43
2009,05,05,08,56,997.50
2009,05,05,08,57,997.53
2009,05,05,08,58,997.50
2009,05,05,08,59,997.53
2009,05,05,09,00,997.56
2009,05,05,09,01,997.66
2009,05,05,09,02,997.73
2009,05,05,09,03,997.80
2009,05,05,09,04,997.83
2009,05,05,09,05,997.90
2009,05,05,09,06,997.97
2009,05,05,09,07,997.97
2009,05,05,09,08,998.00
2009,05,05,09,09,998.04
2009,05,05,09,10,998.07
2009,05,05,09,11,998.07
2009,05,05,09,12,998.14
2009,05,05,09,13,998.17
2009,05,05,09,14,998.17
2009,05,05,09,15,998.17
2009,05,05,09,16,998.24
2009,05,05,09,17,998.24
2009,05,05,09,18,998.27
2009,05,05,09,19,998.31
2009,05,05,09,20,998.38
2009,05,05,09,21,998.38
2009,05,05,09,22,998.38
2009,05,05,09,23,998.38
2009,05,05,09,24,998.38
2009,05,05,09,25,998.41
2009,05,05,09,26,998.44
2009,05,05,09,27,998.41
2009,05,05,09,28,998.44
2009,05,05,09,29,998.51
2009,05,05,09,30,998.51
2009,05,05,09,31,998.44
2009,05,05,09,32,998.48
2009,05,05,09,33,998.48
2009,05,05,09,34,998.51
2009,05,05,09,35,998.58
2009,05,05,09,36,998.65
2009,05,05,09,37,998.65
2009,05,05,09,38,998.68
2009,05,05,09,39,998.65
2009,05,05,09,40,998.71
2009,05,05,09,41,998.75
2009,05,05,09,42,998.78
2009,05,05,09,43,998.82
2009,05,05,09,44,998.85
2009,05,05,09,45,998.82
2009,05,05,09,46,998.88
2009,05,05,09,47,998.92
2009,05,05,09,48,998.99
2009,05,05,09,49,998.95
2009,05,05,09,50,998.92
2009,05,05,09,51,998.99
2009,05,05,09,52,998.99
2009,05,05,09,53,999.02
2009,05,05,09,54,999.05
2009,05,05,09,55,999.09
2009,05,05,09,56,999.05
2009,05,05,09,57,999.09
2009,05,05,09,58,999.12
2009,05,05,09,59,999.19
2009,05,05,10,00,999.15
2009,05,05,10,01,999.12
2009,05,05,10,02,999.19
2009,05,05,10,03,999.26
2009,05,05,10,04,999.22
2009,05,05,10,05,999.29
2009,05,05,10,06,999.32
2009,05,05,10,07,999.29
2009,05,05,10,08,999.39
2009,05,05,10,09,999.37
2009,05,05,10,10,999.46
2009,05,05,10,11,999.39
2009,05,05,10,12,999.39
2009,05,05,10,13,999.39
2009,05,05,10,14,999.36
2009,05,05,10,15,999.39
2009,05,05,10,16,999.39
2009,05,05,10,17,999.39
2009,05,05,10,18,999.43
2009,05,05,10,19,999.49
2009,05,05,10,20,999.46
2009,05,05,10,21,999.53
2009,05,05,10,22,999.49
2009,05,05,10,23,999.56
2009,05,05,10,24,999.56
2009,05,05,10,25,999.59
2009,05,05,10,26,999.56
2009,05,05,10,27,999.66
2009,05,05,10,28,999.59
2009,05,05,10,29,999.59
2009,05,05,10,30,999.59
2009,05,05,10,31,999.59
2009,05,05,10,32,999.63
2009,05,05,10,33,999.70
2009,05,05,10,34,999.66
2009,05,05,10,35,999.70
2009,05,05,10,36,999.70
2009,05,05,10,37,999.73
2009,05,05,10,38,999.76
2009,05,05,10,39,999.76
2009,05,05,10,40,999.80
2009,05,05,10,41,999.76
2009,05,05,10,42,999.76
2009,05,05,10,43,999.70
2009,05,05,10,44,999.80
2009,05,05,10,45,999.80
2009,05,05,10,46,999.80
2009,05,05,10,47,999.87
2009,05,05,10,48,999.83
2009,05,05,10,49,999.87
2009,05,05,10,50,999.93
2009,05,05,10,51,999.93
2009,05,05,10,52,1000.00
2009,05,05,10,53,1000.00
2009,05,05,10,54,999.97
2009,05,05,10,55,1000.03
2009,05,05,10,56,1000.07
2009,05,05,10,57,1000.14
2009,05,05,10,58,1000.20
2009,05,05,10,59,1000.24
2009,05,05,11,00,1000.31
2009,05,05,11,01,1000.31
2009,05,05,11,02,1000.37
2009,05,05,11,03,1000.41
2009,05,05,11,04,1000.41
2009,05,05,11,05,1000.44
2009,05,05,11,06,1000.41
2009,05,05,11,07,1000.44
2009,05,05,11,08,1000.48
2009,05,05,11,09,1000.54
2009,05,05,11,10,1000.61
2009,05,05,11,11,1000.61
2009,05,05,11,12,1000.64
2009,05,05,11,13,1000.64
2009,05,05,11,14,1000.71
2009,05,05,11,15,1000.71
2009,05,05,11,16,1000.68
2009,05,05,11,17,1000.81
2009,05,05,11,18,1000.78
2009,05,05,11,19,1000.81
2009,05,05,11,20,1000.85
2009,05,05,11,21,1000.92
2009,05,05,11,22,1000.85
2009,05,05,11,23,1000.92
2009,05,05,11,24,1000.95
2009,05,05,11,25,1000.95
2009,05,05,11,26,1000.95
2009,05,05,11,27,1001.05
2009,05,05,11,28,1000.98
2009,05,05,11,29,1001.05
2009,05,05,11,30,1001.08
2009,05,05,11,31,1001.08
2009,05,05,11,32,1001.12
2009,05,05,11,33,1001.12
2009,05,05,11,34,1001.15
2009,05,05,11,35,1001.22
2009,05,05,11,36,1001.25
2009,05,05,11,37,1001.29
2009,05,05,11,38,1001.29
2009,05,05,11,39,1001.32
2009,05,05,11,40,1001.36
2009,05,05,11,41,1001.39
2009,05,05,11,42,1001.39
2009,05,05,11,43,1001.46
2009,05,05,11,44,1001.42
2009,05,05,11,45,1001.49
2009,05,05,11,46,1001.52
2009,05,05,11,47,1001.56
2009,05,05,11,48,1001.56
2009,05,05,11,49,1001.59
2009,05,05,11,50,1001.63
2009,05,05,11,51,1001.63
2009,05,05,11,52,1001.66
2009,05,05,11,53,1001.66
2009,05,05,11,54,1001.76
2009,05,05,11,55,1001.83
2009,05,05,11,56,1001.86
2009,05,05,11,57,1001.90
2009,05,05,11,58,1001.97
2009,05,05,11,59,1001.97
2009,05,05,12,00,1002.03
2009,05,05,12,01,1002.07
2009,05,05,12,02,1002.07
2009,05,05,12,03,1002.10
2009,05,05,12,04,1002.10
2009,05,05,12,05,1002.07
2009,05,05,12,06,1002.11
2009,05,05,12,07,1002.20
2009,05,05,12,08,1002.24
2009,05,05,12,09,1002.27
2009,05,05,12,10,1002.34
2009,05,05,12,11,1002.34
2009,05,05,12,12,1002.34
2009,05,05,12,13,1002.37
2009,05,05,12,14,1002.37
2009,05,05,12,15,1002.37
2009,05,05,12,16,1002.37
2009,05,05,12,17,1002.41
2009,05,05,12,18,1002.37
2009,05,05,12,19,1002.41
2009,05,05,12,20,1002.47
2009,05,05,12,21,1002.51
2009,05,05,12,22,1002.47
2009,05,05,12,23,1002.54
2009,05,05,12,24,1002.57
2009,05,05,12,25,1002.61
2009,05,05,12,26,1002.61
2009,05,05,12,27,1002.68
2009,05,05,12,28,1002.64
2009,05,05,12,29,1002.68
2009,05,05,12,30,1002.68
2009,05,05,12,31,1002.71
2009,05,05,12,32,1002.78
2009,05,05,12,33,1002.81
2009,05,05,12,34,1002.85
2009,05,05,12,35,1002.81
2009,05,05,12,36,1002.85
2009,05,05,12,37,1002.85
2009,05,05,12,38,1002.88
2009,05,05,12,39,1002.91
2009,05,05,12,40,1002.88
2009,05,05,12,41,1002.95
2009,05,05,12,42,1002.95
2009,05,05,12,43,1002.98
2009,05,05,12,44,1002.98
2009,05,05,12,45,1003.08
2009,05,05,12,46,1003.05
2009,05,05,12,47,1003.08
2009,05,05,12,48,1003.12
2009,05,05,12,49,1003.12
2009,05,05,12,50,1003.15
2009,05,05,12,51,1003.12
2009,05,05,12,52,1003.08
2009,05,05,12,53,1003.15
2009,05,05,12,54,1003.12
2009,05,05,12,55,1003.18
2009,05,05,12,56,1003.22
2009,05,05,12,57,1003.18
2009,05,05,12,58,1003.18
2009,05,05,12,59,1003.22
2009,05,05,13,00,1003.22
2009,05,05,13,01,1003.25
2009,05,05,13,02,1003.29
2009,05,05,13,03,1003.32
2009,05,05,13,04,1003.35
2009,05,05,13,05,1003.35
2009,05,05,13,06,1003.42
2009,05,05,13,07,1003.42
2009,05,05,13,08,1003.42
2009,05,05,13,09,1003.49
2009,05,05,13,10,1003.52
2009,05,05,13,11,1003.46
2009,05,05,13,12,1003.49
2009,05,05,13,13,1003.49
2009,05,05,13,14,1003.52
2009,05,05,13,15,1003.52
2009,05,05,13,16,1003.59
2009,05,05,13,17,1003.69
2009,05,05,13,18,1003.66
2009,05,05,13,19,1003.73
2009,05,05,13,20,1003.73
2009,05,05,13,21,1003.69
2009,05,05,13,22,1003.66
2009,05,05,13,23,1003.66
2009,05,05,13,24,1003.73
2009,05,05,13,25,1003.69
2009,05,05,13,26,1003.73
2009,05,05,13,27,1003.69
2009,05,05,13,28,1003.73
2009,05,05,13,29,1003.73
2009,05,05,13,30,1003.76
2009,05,05,13,31,1003.79
2009,05,05,13,32,1003.79
2009,05,05,13,33,1003.79
2009,05,05,13,34,1003.79
2009,05,05,13,35,1003.86
2009,05,05,13,36,1003.86
2009,05,05,13,37,1003.83
2009,05,05,13,38,1003.86
2009,05,05,13,39,1003.86
2009,05,05,13,40,1003.90
2009,05,05,13,41,1003.93
2009,05,05,13,42,1003.93
2009,05,05,13,43,1003.96
2009,05,05,13,44,1003.96
2009,05,05,13,45,1004.06
2009,05,05,13,46,1004.00
2009,05,05,13,47,1004.00
2009,05,05,13,48,1004.00
2009,05,05,13,49,1004.06
2009,05,05,13,50,1004.06
2009,05,05,13,51,1004.13
2009,05,05,13,52,1004.10
2009,05,05,13,53,1004.13
2009,05,05,13,54,1004.13
2009,05,05,13,55,1004.17
2009,05,05,13,56,1004.17
2009,05,05,13,57,1004.20
2009,05,05,13,58,1004.17
2009,05,05,13,59,1004.23
2009,05,05,14,00,1004.27
2009,05,05,14,01,1004.27
2009,05,05,14,02,1004.34
2009,05,05,14,03,1004.37
2009,05,05,14,04,1004.37
2009,05,05,14,05,1004.34
2009,05,05,14,06,1004.37
2009,05,05,14,07,1004.37
2009,05,05,14,08,1004.34
2009,05,05,14,09,1004.37
2009,05,05,14,10,1004.44
2009,05,05,14,11,1004.44
2009,05,05,14,12,1004.47
2009,05,05,14,13,1004.47
2009,05,05,14,14,1004.50
2009,05,05,14,15,1004.54
2009,05,05,14,16,1004.54
2009,05,05,14,17,1004.54
2009,05,05,14,18,1004.61
2009,05,05,14,19,1004.61
2009,05,05,14,20,1004.64
2009,05,05,14,21,1004.71
2009,05,05,14,22,1004.61
2009,05,05,14,23,1004.61
2009,05,05,14,24,1004.67
2009,05,05,14,25,1004.67
2009,05,05,14,26,1004.67
2009,05,05,14,27,1004.74
2009,05,05,14,28,1004.78
2009,05,05,14,29,1004.78
2009,05,05,14,30,1004.78
2009,05,05,14,31,1004.74
2009,05,05,14,32,1004.78
2009,05,05,14,33,1004.81
2009,05,05,14,34,1004.84
2009,05,05,14,35,1004.91
2009,05,05,14,36,1004.91
2009,05,05,14,37,1004.91
2009,05,05,14,38,1004.98
2009,05,05,14,39,1005.05
2009,05,05,14,40,1005.11
2009,05,05,14,41,1005.08
2009,05,05,14,42,1005.11
2009,05,05,14,43,1005.11
2009,05,05,14,44,1005.15
2009,05,05,14,45,1005.11
2009,05,05,14,46,1005.18
2009,05,05,14,47,1005.22
2009,05,05,14,48,1005.22
2009,05,05,14,49,1005.22
2009,05,05,14,50,1005.25
2009,05,05,14,51,1005.28
2009,05,05,14,52,1005.28
2009,05,05,14,53,1005.32
2009,05,05,14,54,1005.35
2009,05,05,14,55,1005.39
2009,05,05,14,56,1005.35
2009,05,05,14,57,1005.35
2009,05,05,14,58,1005.39
2009,05,05,14,59,1005.39
2009,05,05,15,00,1005.39
2009,05,05,15,01,1005.45
2009,05,05,15,02,1005.49
2009,05,05,15,03,1005.45
2009,05,05,15,04,1005.45
2009,05,05,15,05,1005.49
2009,05,05,15,06,1005.45
2009,05,05,15,07,1005.49
2009,05,05,15,08,1005.45
2009,05,05,15,09,1005.49
2009,05,05,15,10,1005.49
2009,05,05,15,11,1005.49
2009,05,05,15,12,1005.49
2009,05,05,15,13,1005.49
2009,05,05,15,14,1005.52
2009,05,05,15,15,1005.52
2009,05,05,15,16,1005.55
2009,05,05,15,17,1005.49
2009,05,05,15,18,1005.55
2009,05,05,15,19,1005.59
2009,05,05,15,20,1005.59
2009,05,05,15,21,1005.66
2009,05,05,15,22,1005.66
2009,05,05,15,23,1005.69
2009,05,05,15,24,1005.72
2009,05,05,15,25,1005.72
2009,05,05,15,26,1005.76
2009,05,05,15,27,1005.76
2009,05,05,15,28,1005.79
2009,05,05,15,29,1005.72
2009,05,05,15,30,1005.72
2009,05,05,15,31,1005.72
2009,05,05,15,32,1005.72
2009,05,05,15,33,1005.72
2009,05,05,15,34,1005.76
2009,05,05,15,35,1005.83
2009,05,05,15,36,1005.76
2009,05,05,15,37,1005.79
2009,05,05,15,38,1005.76
2009,05,05,15,39,1005.76
2009,05,05,15,40,1005.79
2009,05,05,15,41,1005.83
2009,05,05,15,42,1005.83
2009,05,05,15,43,1005.79
2009,05,05,15,44,1005.83
2009,05,05,15,45,1005.83
2009,05,05,15,46,1005.83
2009,05,05,15,47,1005.83
2009,05,05,15,48,1005.83
2009,05,05,15,49,1005.83
2009,05,05,15,50,1005.79
2009,05,05,15,51,1005.86
2009,05,05,15,52,1005.86
2009,05,05,15,53,1005.89
2009,05,05,15,54,1005.89
2009,05,05,15,55,1005.93
2009,05,05,15,56,1005.89
2009,05,05,15,57,1005.93
2009,05,05,15,58,1005.89
2009,05,05,15,59,1005.89
2009,05,05,16,00,1005.93
2009,05,05,16,01,1005.96
2009,05,05,16,02,1005.96
2009,05,05,16,03,1006.06
2009,05,05,16,04,1006.10
2009,05,05,16,05,1006.03
2009,05,05,16,06,1006.06
2009,05,05,16,07,1006.03
2009,05,05,16,08,1006.06
2009,05,05,16,09,1006.06
2009,05,05,16,10,1006.03
2009,05,05,16,11,1006.03
2009,05,05,16,12,1006.06
2009,05,05,16,13,1006.10
2009,05,05,16,14,1006.16
2009,05,05,16,15,1006.13
2009,05,05,16,16,1006.13
2009,05,05,16,17,1006.13
2009,05,05,16,18,1006.13
2009,05,05,16,19,1006.16
2009,05,05,16,20,1006.20
2009,05,05,16,21,1006.13
2009,05,05,16,22,1006.20
2009,05,05,16,23,1006.13